• Join FlightAware (Why Join?)
  • Login
  • US Flag GB Flag 
07:56 EDT


 

Airport Tracker/Info


-or-


 

Live Flight TrackerFlight Track Log ✈ UAL4108 ✈ 18-Apr-2013 ✈ KLIT - KIAH

Flight Track Log - Related Links

Times and Time Zones

All times are in EDT time to prevent confusion due to time zone crossing. See the UAL4108 flight status page for this flight to view local times or setup timezone preferences in your user account.

Time Position Orientation Groundspeed Altitude Reporting Facility
EDT Latitude Longitude Course Direction KTS MPH feet Rate Location/Type
20:55 34.7136 -92.2494 244° Southwest 168 193 1,000  Level Memphis Center
20:56 34.6858 -92.2867 228° Southwest 185 213 2,900 1,980 Climbing Memphis Center
20:57 34.6556 -92.3542 241° Southwest 237 273 4,900 2,400 Climbing Memphis Center
20:58 34.5308 -92.5735 246° West  Level FlightAware Approximate
20:58 34.6247 -92.4494 249° West 246 283 8,700  Level Memphis Center
20:59 34.4871 -92.6938 246° West  Level FlightAware Approximate
20:59 34.5986 -92.5169 245° Southwest 233 268 10,200  Level Memphis Center
21:00 34.4499 -92.8169 244° Southwest  Level FlightAware Approximate
21:00 34.5700 -92.5994 247° West 239 275 11,300  Level Memphis Center
21:01 34.5392 -92.6842 246° West 265 305 13,100 1,980 Climbing Memphis Center
21:02 34.5083 -92.7667 246° West 270 311 15,300 2,400 Climbing Memphis Center
21:03 34.4819 -92.8364 245° Southwest 264 304 17,900 1,800 Climbing Memphis Center
21:04 34.4556 -92.9111 247° West 250 288 19,000 900 Climbing Memphis Center
21:05 34.4267 -92.9908 246° West 255 293 19,700 660 Climbing Memphis Center
21:06 34.3914 -93.0806 245° Southwest 276 318 20,400 840 Climbing Memphis Center
21:08 34.3108 -93.3078 247° West 315 362 22,600 1,020 Climbing Fort Worth Center
21:09 34.2742 -93.4050 245° Southwest 320 368 23,900 1,140 Climbing Fort Worth Center
21:10 34.2375 -93.4997 245° Southwest 320 368 24,900 960 Climbing Fort Worth Center
21:11 34.2008 -93.5967 245° Southwest 320 368 25,900 900 Climbing Fort Worth Center
21:12 34.1664 -93.6936 247° West 320 368 26,800 1,020 Climbing Fort Worth Center
21:13 34.1256 -93.8008 245° Southwest 320 368 28,000 600 Climbing Fort Worth Center
21:14 34.0886 -93.8950 245° Southwest 320 368 28,000  Level Fort Worth Center
21:15 34.0517 -93.9967 246° West 320 368 28,000  Level Fort Worth Center
21:16 34.0128 -94.0986 245° Southwest 325 374 28,000  Level Fort Worth Center
21:17 33.9717 -94.2028 245° Southwest 331 381 28,000  Level Fort Worth Center
21:18 33.9306 -94.3094 245° Southwest 342 394 28,000  Level Fort Worth Center
21:19 33.8892 -94.4136 244° Southwest 342 394 28,000  Level Fort Worth Center
21:20 33.8500 -94.5175 246° West 347 399 28,000  Level Fort Worth Center
21:21 33.8064 -94.6239 244° Southwest 347 399 28,000  Level Fort Worth Center
21:22 33.7669 -94.7275 245° Southwest 347 399 28,000  Level Fort Worth Center
21:23 33.7253 -94.8361 245° Southwest 347 399 28,000  Level Fort Worth Center
21:24 33.6836 -94.9372 244° Southwest 347 399 28,000  Level Fort Worth Center
21:25 33.6419 -95.0431 245° Southwest 347 399 28,000  Level Fort Worth Center
21:26 33.6042 -95.1464 246° West 347 399 28,000  Level Fort Worth Center
21:27 33.5619 -95.2497 244° Southwest 347 399 28,000  Level Fort Worth Center
21:28 33.5222 -95.3553 246° West 347 399 28,000  Level Fort Worth Center
21:29 33.4758 -95.4611 242° Southwest 347 399 28,000  Level Fort Worth Center
21:30 33.4336 -95.5667 244° Southwest 347 399 28,000  Level Fort Worth Center
21:31 33.3975 -95.6692 247° West 347 399 28,000  Level Fort Worth Center
21:32 33.3611 -95.7644 245° Southwest 341 392 28,000  Level Fort Worth Center
21:33 33.3167 -95.8697 243° Southwest 351 404 28,000  Level Fort Worth Center
21:34 33.2719 -95.9772 244° Southwest 351 404 28,000  Level Fort Worth Center
21:35 33.2314 -96.0822 245° Southwest 351 404 28,000  Level Fort Worth Center
21:36 33.1864 -96.1847 242° Southwest 351 404 28,000  Level Fort Worth Center
21:37 33.1436 -96.2919 245° Southwest 346 398 28,000  Level Fort Worth Center
21:38 33.0967 -96.4067 244° Southwest 352 405 28,000  Level Fort Worth Center
21:39 33.0536 -96.5111 244° Southwest 352 405 28,000  Level Fort Worth Center
21:40 33.0103 -96.6183 244° Southwest 352 405 28,000  Level Fort Worth Center
21:41 32.9672 -96.7200 243° Southwest 352 405 28,000  Level Fort Worth Center
21:42 32.9239 -96.8244 244° Southwest 352 405 28,000  Level Fort Worth Center
21:43 32.8636 -96.9139 231° Southwest 346 398 28,000  Level Fort Worth Center
21:44 32.7614 -96.8797 164° South 309 356 28,000  Level Fort Worth Center
21:45 32.6650 -96.8408 161° South 354 407 28,000  Level Fort Worth Center
21:46 32.5542 -96.8094 167° South 392 451 28,000  Level Fort Worth Center
21:47 32.4414 -96.7758 166° South 410 472 28,000  Level Fort Worth Center
21:48 32.3328 -96.7447 166° South 410 472 28,000  Level Fort Worth Center
21:49 32.2239 -96.7111 165° South 405 466 28,000  Level Fort Worth Center
21:50 32.1047 -96.6653 162° South 410 472 28,000  Level Fort Worth Center
21:51 31.9958 -96.6197 160° South 410 472 28,000  Level Fort Worth Center
21:52 31.8892 -96.5742 160° South 410 472 28,000  Level Fort Worth Center
21:53 31.7781 -96.5286 161° South 418 481 28,000  Level Fort Worth Center
21:56 31.5428 -96.4286 160° South 420 483 28,000  Level Houston Center
21:57 31.4311 -96.3825 161° South 420 483 28,000  Level Houston Center
21:58 31.3214 -96.3253 156° South 427 491 28,000 -540 Level Houston Center
21:59 31.2136 -96.2681 156° South 420 483 26,900 -1,380 Descending Houston Center
22:00 31.1106 -96.2114 155° Southeast 408 470 25,200 -1,860 Descending Houston Center
22:01 30.9972 -96.1514 156° South 434 499 23,200 -2,100 Descending Houston Center
22:02 30.8875 -96.0931 155° Southeast 429 494 21,000 -2,280 Descending Houston Center
22:03 30.7731 -96.0322 155° Southeast 407 468 18,600 -2,220 Descending Houston Center
22:04 30.6725 -95.9786 155° Southeast 400 460 16,500 -2,280 Descending Houston Center
22:04 30.6358 -95.9606 157° South 395 455 15,600 -2,640 Descending Houston Center
22:05 30.5650 -95.9214 155° Southeast 386 444 13,800 -2,460 Descending Houston Center
22:05 30.5258 -95.9031 158° South 381 438 12,900 -1,680 Descending Houston Center
22:06 30.4692 -95.8694 153° Southeast 380 437 12,100 -900 Descending Houston Center
22:06 30.4325 -95.8411 146° Southeast 381 438 12,000 -420 Descending Houston Center
22:07 30.3867 -95.7931 138° Southeast 381 438 11,700 -960 Descending Houston Center
22:07 30.3514 -95.7561 138° Southeast 340 391 11,000 -1,500 Descending Houston Center
22:08 30.3192 -95.7222 138° Southeast 338 389 10,200 -1,800 Descending Houston Center
22:08 30.2867 -95.6889 138° Southeast 290 334 9,200 -1,860 Descending Houston Center
22:09 30.2592 -95.6600 138° Southeast 293 337 8,300 -1,800 Descending Houston Center
22:09 30.2244 -95.6261 140° Southeast 288 331 7,400 -1,500 Descending Houston Center
22:10 30.2006 -95.5989 135° Southeast 286 329 6,800 -1,200 Descending Houston Center
22:10 30.1667 -95.5653 139° Southeast 285 328 6,200 -780 Descending Houston Center
22:11 30.1403 -95.5361 136° Southeast 288 331 6,000 -240 Descending Houston Center
22:11 30.1125 -95.5017 133° Southeast 296 341 6,000  Level Houston Center
22:12 30.1047 -95.4533 101° East 303 349 6,000  Level Houston Center
22:12 30.1061 -95.4081 88° East 290 334 6,000 -120 Level Houston Center
22:13 30.1058 -95.3422 90° East 289 333 5,900 -240 Descending Houston Center
22:13 30.1061 -95.3142 89° East 288 331 5,800 -1,500 Descending Houston Center
22:14 30.1056 -95.2511 91° East 285 328 4,400 -1,740 Descending Houston Center
22:14 30.1056 -95.2175 90° East 271 312 3,900 -1,320 Descending Houston Center
22:15 30.0939 -95.1697 106° East 271 312 3,100 -900 Descending Houston Center
22:15 30.0761 -95.1486 134° Southeast 241 277 3,000 -540 Descending Houston Center
22:16 30.0406 -95.1372 165° South 236 272 2,600 -840 Descending Houston Center
22:16 30.0125 -95.1444 193° South 217 250 2,200 -600 Descending Houston Center
22:17 29.9956 -95.1703 233° Southwest 216 249 2,000 -120 Descending Houston Center
22:17 29.9936 -95.1878 263° West 170 196 2,100 -240 Climbing Houston Center
22:18 29.9933 -95.2247 270° West 187 215 1,800 -660 Descending Houston Center
22:19 29.9936 -95.2708 270° West 165 190 1,000 -780 Descending Houston Center
22:20 29.9939 -95.3119 270° West 146 168 300 -720 Descending Houston Center